Weather History for KFAR - January, 2014

Change the Weather History Date:

Tuesday, January 21, 2014

  Actual Average Record
Temperature  
Mean Temperature -6 °F 9 °F  
Max Temperature 9 °F 18 °F 52 °F (1900)
Min Temperature -21 °F -1 °F -41 °F (1888)
Degree Days  
Heating Degree Days 71 56  
Month to date heating degree days 1234 1172  
Since 1 July heating degree days 4957 4712  
Cooling Degree Days 0 0  
Month to date cooling degree days 0 0  
Year to date cooling degree days 0 0  
Moisture  
Dew Point -9 °F    
Average Humidity 74    
Maximum Humidity 83    
Minimum Humidity 64    
Precipitation  
Precipitation 0.05 in 0.02 in 0.57 in (1952)
Month to date precipitation 0.51 0.51  
Year to date precipitation 0.51 0.51  
Snow  
Snow 0.80 in 0.30 in 6.10 in (1952)
Month to date snowfall 6.8 8.1  
Since 1 July snowfall 23.2 27.9  
Snow Depth 11.00 in    
Sea Level Pressure  
Sea Level Pressure 30.21 in    
Wind  
Wind Speed 11 mph (South)    
Max Wind Speed 24 mph    
Max Gust Speed 28 mph    
Visibility 6 miles    
Events Snow    
T = Trace of Precipitation, MM = Missing Value Source: NWS Daily Summary

Daily Weather History Graph

Daily Weather History Graph

Search for Another Location

Airport or City:

Trip Planner

Search our weather history database for the weather conditions in past years. The results will help you decide how hot, cold, wet, or windy it might be!

Date:

Astronomy

Jan. 21, 2014 Rise Set
Actual Time 8:03 AM CST 5:14 PM CST
Civil Twilight 7:30 AM CST 5:47 PM CST
Nautical Twilight 6:52 AM CST 6:24 PM CST
Astronomical Twilight 6:16 AM CST 7:01 PM CST
Moon 11:12 PM CST (1/21) 10:11 AM CST (1/21)
Length of Visible Light 10h 17m
Length of Day
9h 10m
Waning Gibbous, 74% of the Moon is Illuminated
Jan 21
Waning Gibbous
Jan 23
Last Quarter
Jan 30
New
Feb 6
First Quarter
Feb 14
Full

Hourly Weather History & Observations

Time (CST) Temp. Windchill Dew Point Humidity Pressure Visibility Wind Dir Wind Speed Gust Speed Precip Events Conditions
12:53 AM -18.9 °F -34.0 °F -25.1 °F 74% 30.63 in 10.0 mi SW 5.8 mph - N/A   Clear
1:53 AM -17.0 °F -29.7 °F -24.0 °F 70% 30.60 in 10.0 mi South 4.6 mph - N/A   Clear
2:53 AM -16.1 °F -30.6 °F -22.0 °F 74% 30.58 in 10.0 mi South 5.8 mph - N/A   Clear
3:53 AM -16.1 °F -32.3 °F -22.0 °F 74% 30.55 in 10.0 mi South 6.9 mph - N/A   Clear
4:53 AM -15.0 °F -27.4 °F -20.9 °F 75% 30.53 in 10.0 mi South 4.6 mph - N/A   Clear
5:53 AM -13.0 °F -28.6 °F -20.0 °F 71% 30.47 in 10.0 mi SE 6.9 mph - N/A   Overcast
6:53 AM -9.9 °F -26.3 °F -18.0 °F 68% 30.45 in 10.0 mi South 8.1 mph - N/A   Overcast
7:53 AM -9.9 °F -28.6 °F -18.0 °F 68% 30.39 in 10.0 mi South 10.4 mph - N/A   Overcast
8:53 AM -9.0 °F -29.3 °F -16.1 °F 71% 30.35 in 10.0 mi SSE 12.7 mph - N/A   Overcast
9:53 AM -7.1 °F -27.6 °F -16.1 °F 65% 30.31 in 10.0 mi SSE 13.8 mph - N/A   Overcast
10:53 AM -6.0 °F -28.4 °F -14.1 °F 68% 30.27 in 2.5 mi SSE 17.3 mph - 0.00 in Snow Light Snow
11:03 AM -5.8 °F -28.2 °F -14.8 °F 65% 30.17 in 1.5 mi SSE 17.3 mph 23.0 mph 0.00 in Snow Light Snow
11:11 AM -5.8 °F -28.8 °F -13.0 °F 71% 30.17 in 1.2 mi SSE 18.4 mph - 0.00 in Snow Light Snow
11:26 AM -5.8 °F -27.5 °F -11.2 °F 77% 30.16 in 0.8 mi SSE 16.1 mph 25.3 mph 0.00 in Snow Light Snow
11:36 AM -5.8 °F -28.2 °F -11.2 °F 77% 30.15 in 1.2 mi SSE 17.3 mph - 0.00 in Snow Light Snow
11:53 AM -4.0 °F -25.2 °F -11.0 °F 72% 30.24 in 0.8 mi SSE 16.1 mph - 0.00 in Snow Light Snow
12:25 PM -4.0 °F -26.4 °F -11.2 °F 71% 30.11 in 1.0 mi SSE 18.4 mph - 0.00 in Snow Light Snow
12:40 PM -4.0 °F -26.4 °F -9.4 °F 78% 30.09 in 0.5 mi SSE 18.4 mph 24.2 mph 0.00 in Snow Snow
12:53 PM -2.9 °F -24.4 °F -9.9 °F 72% 30.18 in 0.5 mi SSE 17.3 mph 27.6 mph 0.00 in Snow Snow
1:00 PM -2.2 °F -24.1 °F -9.4 °F 71% 30.07 in 0.5 mi SSE 18.4 mph 25.3 mph 0.00 in Snow Snow
1:12 PM -2.2 °F -25.7 °F -9.4 °F 71% 30.05 in 0.5 mi SSE 21.9 mph 27.6 mph 0.01 in Snow Snow
1:53 PM -0.9 °F -23.0 °F -8.0 °F 72% 30.14 in 0.8 mi SSE 19.6 mph - 0.01 in Snow Light Snow
2:19 PM -0.4 °F -22.3 °F -7.6 °F 72% 30.01 in 1.2 mi SSE 19.6 mph 25.3 mph 0.01 in Snow Light Snow
2:26 PM -0.4 °F -22.3 °F -7.6 °F 72% 30.01 in 1.5 mi SSE 19.6 mph 26.5 mph 0.01 in Snow Light Snow
2:43 PM -0.4 °F -22.3 °F -7.6 °F 72% 30.01 in 2.0 mi South 19.6 mph 26.5 mph 0.01 in Snow Light Snow
2:53 PM -0.0 °F -20.7 °F -6.0 °F 76% 30.11 in 2.5 mi South 17.3 mph - 0.01 in Snow Light Snow
3:10 PM 1.4 °F -17.6 °F -5.8 °F 72% 30.01 in 4.0 mi South 15.0 mph - 0.00 in Snow Light Snow
3:53 PM 1.0 °F -20.4 °F -5.1 °F 75% 30.11 in 7.0 mi South 19.6 mph - 0.00 in   Overcast
4:31 PM 1.4 °F -17.6 °F -4.0 °F 78% 30.01 in 9.0 mi South 15.0 mph - N/A   Overcast
4:53 PM 1.9 °F -16.9 °F -4.0 °F 76% 30.11 in 3.0 mi South 15.0 mph - 0.00 in Snow Light Snow
5:53 PM 3.0 °F -14.1 °F -2.9 °F 76% 30.10 in 6.0 mi South 12.7 mph - 0.00 in Snow Light Snow
6:53 PM 3.9 °F -10.4 °F -2.0 °F 76% 30.10 in 5.0 mi South 9.2 mph - 0.00 in Snow Light Snow
7:53 PM 5.0 °F -5.6 °F -0.0 °F 80% 30.10 in 6.0 mi South 5.8 mph - 0.17 in Snow Light Snow
8:30 PM 6.8 °F -0.1 °F 1.4 °F 79% 30.01 in 8.0 mi SW 3.5 mph - 0.00 in   Overcast
8:42 PM 6.8 °F -4.8 °F 1.4 °F 79% 30.02 in 5.0 mi West 6.9 mph - 0.00 in Snow Light Snow
8:53 PM 7.0 °F -5.7 °F 1.9 °F 80% 30.09 in 8.0 mi West 8.1 mph - 0.00 in   Overcast
9:53 PM 8.1 °F -6.2 °F 1.9 °F 76% 30.10 in 10.0 mi NNW 10.4 mph - N/A   Overcast
10:13 PM 8.6 °F -5.5 °F 1.4 °F 73% 30.03 in 10.0 mi NW 10.4 mph - N/A   Overcast
10:53 PM 8.1 °F -5.3 °F 3.0 °F 80% 30.11 in 8.0 mi NW 9.2 mph - N/A   Overcast
11:53 PM 8.1 °F -7.7 °F 3.0 °F 80% 30.13 in 4.0 mi North 12.7 mph - 0.00 in Snow Light Snow